Location: Street
(51.1247°N, 2.7429°W)
Time: 08:34:35
(UTC+00:00)

Transit 2A Rocket - Pass Details

Date: 03 December 2020
Orbit: 592 x 911 km, 66.7° (Epoch: 16 January)

Event Time Altitude Azimuth Distance (km) Brightness Sun altitude
Exits shadow 05:54:01 12° 340° (NNW) 2,137 7.0 -18.1°
Maximum altitude 05:55:51 15° 3° (N) 1,973 7.0 -17.8°
Drops below altitude 10° 05:58:37 10° 36° (NE) 2,210 7.7 -17.4°
Sets 06:01:58 0° 61° (ENE) 3,056 8.9 -16.9°
